Regional Weather Roundup
Issued by NWS

Home | Current Version | Previous Version | Text Only | Print | Product List | Glossary On
Versions: 1 2 3 4 5 6 7 8 9 10 11 12 13 14 15 16 17 18 19 20 21 22 23 24 25 26 27
000
ASPQ40 PGUM 292112
RWRPQ
WEATHER ROUNDUP FOR THE MARIANAS AND MICRONESIA
NATIONAL WEATHER SERVICE TIYAN GU
700 AM CHST TUE MAY 30 2017

GUZ001>004-292200-
MARIANA ISLANDS-

CITY           SKY/WX    TMP DP  RH WIND       PRES   REMARKS
GUAM AIRPORT   SUNNY     79  79 100 E5        29.91R
ANDERSEN AFB   LGT RAIN  81  75  83 CALM      29.92R FOG
ROTA AIRPORT   MOSUNNY   82  75  78 VRB3      29.91R
TINIAN AP      MOSUNNY   81  77  89 NE3       29.89R
SAIPAN AP      MOSUNNY   84  77  79 E6        29.90R HX  94

$$

PMZ161-292200-
REPUBLIC OF PALAU-

CITY           SKY/WX    TMP DP  RH WIND       PRES   REMARKS
KOROR AP       NOT AVBL
KOROR WSO      CLOUDY    81  79  94 SE3       29.85R

$$

PMZ171>174-292200-
FEDERATED STATES OF MICRONESIA-

CITY           SKY/WX    TMP DP  RH WIND       PRES   REMARKS
YAP AIRPORT    MOCLDY    81  77  89 VRB3      29.85R
CHUUK AP       MOSUNNY   84  77  79 NE9       29.83R HX  94
POHNPEI AP     PTSUNNY   86  77  74 E9        29.81S HX  97
POHNPEI WSO    CLOUDY    86  79  79 NE6       29.86R HX  99
KOSRAE AP      NOT AVBL

$$

PMZ181-292200-
REPUBLIC OF THE MARSHALL ISLANDS-

CITY           SKY/WX    TMP DP  RH WIND       PRES   REMARKS
KWAJALEIN AP   SUNNY     84  77  79 E9        29.86R HX  94
MAJURO AP      MOSUNNY   84  75  74 E10       29.84S HX  92
MAJURO WSO     PTSUNNY   86  77  74 E9        29.84R HX  97

$$





USA.gov is the U.S. government's official web portal to all federal, state and local government web resources and services.